Date String (YYYY-MM-DD hh:mm:ss) UTC,Instrument flags,absolute air pressure of the measurement (hPa),sample flow rate (lpm),inlet stack bypass flow (lpm),air temperature of the measurement (°C),ambient temperature measured by the external sensor (°C),aerosol sample conditioner tube jacket temperature (°C),OPC LED temperature (°C),internal box temperature (°C),relative humidity of the measurement (%),span deviation,mass concentration of particles derived from Lorenz-Mie calculation of OPC scattering (μg/m³),mass concentration of particles derived from Lorenz-Mie calculation of OPC scattering (μg/m³),mass concentration of particles derived from Lorenz-Mie calculation of OPC scattering (μg/m³)
DateTimeUTC,F1_M11,P_M11,Q1_M11,Q2_M11,T1_M11,T2_M11,T3_M11,T4_M11,T5_M11,U1_M11,ZSPAN_M11,X2_M11,X0_M11,X1_M11
2023-10-04 11:00:00,SystemResetWarning,0832.1,5.00,000.00,029.1,027.8,000.0,037.5,030.7,15.8,0000.0,0002.41,0006.95,0001.79
2023-10-04 11:01:00,SystemResetWarning,0832.1,5.00,000.00,029.1,027.9,000.0,037.5,030.7,15.8,0000.0,0002.43,0006.63,0001.80
2023-10-04 11:02:00,SystemResetWarning,0832.2,5.00,000.00,029.1,027.9,000.0,037.5,030.7,15.8,0000.0,0002.44,0006.64,0001.81
2023-10-04 11:03:00,SystemResetWarning,0832.2,5.00,000.00,029.1,027.9,000.0,037.5,030.8,15.8,0000.0,0002.44,0007.66,0001.82
2023-10-04 11:04:00,SystemResetWarning,0832.2,5.00,000.00,029.1,027.9,000.0,037.5,030.7,15.8,0000.0,0002.49,0007.71,0001.83
2023-10-04 11:05:00,SystemResetWarning,0832.2,5.00,000.00,029.1,027.9,000.0,037.5,030.7,15.8,0000.0,0002.52,0007.73,0001.85
2023-10-04 11:06:00,SystemResetWarning,0832.1,5.00,000.00,029.1,027.9,000.0,037.5,030.7,15.8,0000.0,0002.47,0007.30,0001.85
2023-10-04 11:07:00,SystemResetWarning,0832.2,5.00,000.00,029.1,027.8,000.0,037.5,030.7,15.9,0000.0,0002.46,0006.88,0001.86
2023-10-04 11:08:00,SystemResetWarning,0832.2,5.00,000.00,029.1,027.8,000.0,037.5,030.7,15.9,0000.0,0002.55,0007.21,0001.88
2023-10-04 11:09:00,SystemResetWarning,0832.2,5.00,000.00,029.1,027.7,000.0,037.5,030.7,15.9,0000.0,0002.61,0007.39,0001.91
2023-10-04 11:10:00,SystemResetWarning,0832.2,5.01,000.00,029.1,027.7,000.0,037.5,030.7,15.9,0000.0,0002.57,0006.88,0001.92
2023-10-04 11:11:00,SystemResetWarning,0832.2,5.01,000.00,029.1,027.7,000.0,037.5,030.6,15.8,0000.0,0002.58,0006.65,0001.93
2023-10-04 11:12:00,SystemResetWarning,0832.1,5.00,000.00,029.1,027.7,000.0,037.5,030.6,15.8,0000.0,0002.57,0006.49,0001.94
2023-10-04 11:13:00,SystemResetWarning,0832.1,5.00,000.00,029.1,027.7,000.0,037.5,030.6,15.8,0000.0,0002.54,0006.74,0001.94
2023-10-04 11:14:00,SystemResetWarning,0832.1,5.00,000.00,029.0,027.6,000.0,037.5,030.6,15.9,0000.0,0002.54,0005.38,0001.94
2023-10-04 11:15:00,SystemResetWarning,0832.1,4.99,000.00,029.0,027.6,000.0,037.5,030.6,15.9,0000.0,0002.52,0005.20,0001.94
2023-10-04 11:16:00,SystemResetWarning,0832.1,5.00,000.00,029.0,027.6,000.0,037.5,030.5,15.9,0000.0,0002.54,0005.39,0001.93
2023-10-04 11:17:00,SystemResetWarning,0832.1,5.00,000.00,029.0,027.6,000.0,037.5,030.5,15.9,0000.0,0002.60,0005.58,0001.95
2023-10-04 11:18:00,SystemResetWarning,0832.2,5.00,000.00,029.0,027.6,000.0,037.5,030.5,15.9,0000.0,0002.63,0005.60,0001.95
2023-10-04 11:19:00,SystemResetWarning,0832.1,5.00,000.00,029.0,027.5,000.0,037.5,030.5,15.9,0000.0,0002.56,0005.14,0001.95
2023-10-04 11:20:00,SystemResetWarning,0832.2,5.00,000.00,029.0,027.5,000.0,037.5,030.5,15.9,0000.0,0002.53,0005.12,0001.95
2023-10-04 11:21:00,SystemResetWarning,0832.2,5.00,000.00,029.0,027.6,000.0,037.5,030.5,15.8,0000.0,0002.57,0006.67,0001.95
2023-10-04 11:22:00,SystemResetWarning,0832.2,5.00,000.00,029.0,027.6,000.0,037.5,030.5,15.8,0000.0,0002.63,0007.72,0001.96
2023-10-04 11:23:00,SystemResetWarning,0832.2,5.00,000.00,029.0,027.6,000.0,037.5,030.5,15.7,0000.0,0002.69,0007.78,0001.99
2023-10-04 11:24:00,SystemResetWarning,0832.2,5.01,000.00,029.0,027.6,000.0,037.5,030.5,15.7,0000.0,0002.74,0007.64,0002.02
2023-10-04 11:25:00,SystemResetWarning,0832.2,5.00,000.00,029.0,027.6,000.0,037.5,030.5,15.7,0000.0,0002.78,0007.66,0002.03
2023-10-04 11:26:00,SystemResetWarning,0832.2,5.00,000.00,029.0,027.6,000.0,037.5,030.5,15.6,0000.0,0002.83,0008.42,0002.05
2023-10-04 11:27:00,SystemResetWarning,0832.2,5.00,000.00,029.0,027.7,000.0,037.5,030.6,15.4,0000.0,0002.81,0008.67,0002.07
2023-10-04 11:28:00,SystemResetWarning,0832.2,5.00,000.00,029.0,027.7,000.0,037.5,030.6,15.4,0000.0,0002.79,0008.79,0002.08
2023-10-04 11:29:00,SystemResetWarning,0832.2,5.00,000.00,029.0,027.7,000.0,037.5,030.6,15.5,0000.0,0002.80,0009.09,0002.11
2023-10-04 11:30:00,SystemResetWarning,0832.2,5.00,000.00,029.0,027.8,000.0,037.5,030.6,15.5,0000.0,0002.83,0009.24,0002.12
2023-10-04 11:31:00,SystemResetWarning,0832.2,5.00,000.00,029.0,027.8,000.0,037.5,030.6,15.5,0000.0,0002.84,0009.25,0002.13
2023-10-04 11:32:00,SystemResetWarning,0832.3,5.00,000.00,029.0,027.8,000.0,037.5,030.7,15.5,0000.0,0002.83,0008.39,0002.15
2023-10-04 11:33:00,SystemResetWarning,0832.3,5.00,000.00,029.1,027.8,000.0,037.5,030.7,15.5,0000.0,0002.79,0007.67,0002.15
2023-10-04 11:34:00,SystemResetWarning,0832.3,4.99,000.00,029.1,027.9,000.0,037.5,030.7,15.5,0000.0,0002.77,0007.69,0002.15
2023-10-04 11:35:00,SystemResetWarning,0832.3,5.00,000.00,029.1,027.9,000.0,037.5,030.7,15.5,0000.0,0002.73,0008.06,0002.13
2023-10-04 11:36:00,SystemResetWarning,0832.3,5.00,000.00,029.1,027.9,000.0,037.5,030.8,15.5,0000.0,0002.73,0008.41,0002.13
2023-10-04 11:37:00,SystemResetWarning,0832.3,5.00,000.00,029.1,027.9,000.0,037.5,030.8,15.4,0000.0,0002.70,0007.88,0002.12
2023-10-04 11:38:00,SystemResetWarning,0832.3,5.00,000.00,029.1,027.9,000.0,037.5,030.8,15.4,0000.0,0002.74,0007.63,0002.13
2023-10-04 11:39:00,SystemResetWarning,0832.3,5.00,000.00,029.2,027.9,000.0,037.5,030.8,15.5,0000.0,0002.77,0007.99,0002.12
2023-10-04 11:40:00,SystemResetWarning,0832.3,5.00,000.00,029.2,027.9,000.0,037.6,030.8,15.7,0000.0,0002.78,0007.66,0002.11
2023-10-04 11:41:00,SystemResetWarning,0832.3,5.00,000.00,029.2,028.0,000.0,037.6,030.9,15.8,0000.0,0002.81,0007.60,0002.11
2023-10-04 11:42:00,SystemResetWarning,0832.3,5.00,000.00,029.2,028.0,000.0,037.6,030.9,15.8,0000.0,0002.80,0007.51,0002.12
2023-10-04 11:43:00,SystemResetWarning,0832.3,5.00,000.00,029.2,028.0,000.0,037.6,030.9,15.7,0000.0,0002.82,0007.54,0002.12
2023-10-04 11:44:00,SystemResetWarning,0832.3,5.00,000.00,029.2,028.0,000.0,037.6,030.9,15.6,0000.0,0002.83,0007.52,0002.14
2023-10-04 11:45:00,SystemResetWarning,0832.3,5.00,000.00,029.3,028.0,000.0,037.6,030.9,15.7,0000.0,0002.85,0007.57,0002.15
2023-10-04 11:46:00,SystemResetWarning,0832.3,5.00,000.00,029.3,028.0,000.0,037.6,030.9,15.7,0000.0,0002.86,0007.31,0002.15
2023-10-04 11:47:00,SystemResetWarning,0832.3,5.01,000.00,029.3,028.0,000.0,037.6,030.9,15.7,0000.0,0002.88,0007.76,0002.17
2023-10-04 11:48:00,SystemResetWarning,0832.3,5.01,000.00,029.3,028.0,000.0,037.7,030.9,15.6,0000.0,0002.92,0007.69,0002.19
2023-10-04 11:49:00,SystemResetWarning,0832.3,5.00,000.00,029.3,028.0,000.0,037.7,030.9,15.6,0000.0,0002.97,0007.70,0002.19
2023-10-04 11:50:00,SystemResetWarning,0832.3,5.00,000.00,029.3,028.0,000.0,037.7,030.9,15.6,0000.0,0002.97,0007.13,0002.20
2023-10-04 11:51:00,SystemResetWarning,0832.4,5.00,000.00,029.3,028.0,000.0,037.7,030.9,15.5,0000.0,0002.99,0007.31,0002.23
2023-10-04 11:52:00,SystemResetWarning,0832.4,5.00,000.00,029.3,028.0,000.0,037.7,031.0,15.5,0000.0,0002.99,0007.35,0002.24
2023-10-04 11:53:00,SystemResetWarning,0832.4,4.99,000.00,029.3,028.0,000.0,037.7,030.9,15.5,0000.0,0002.99,0007.22,0002.26
2023-10-04 11:54:00,SystemResetWarning,0832.4,4.99,000.00,029.3,028.0,000.0,037.7,030.9,15.5,0000.0,0002.99,0007.10,0002.28
2023-10-04 11:55:00,SystemResetWarning,0832.4,5.00,000.00,029.3,028.0,000.0,037.7,030.9,15.5,0000.0,0003.02,0007.08,0002.30
2023-10-04 11:56:00,SystemResetWarning,0832.4,5.00,000.00,029.3,028.0,000.0,037.7,030.9,15.4,0000.0,0003.00,0006.95,0002.31
2023-10-04 11:57:00,SystemResetWarning,0832.4,5.01,000.00,029.3,028.0,000.0,037.7,030.9,15.4,0000.0,0003.03,0007.58,0002.33
2023-10-04 11:58:00,SystemResetWarning,0832.4,5.01,000.00,029.3,028.0,000.0,037.7,030.9,15.3,0000.0,0003.02,0006.55,0002.33
2023-10-04 11:59:00,SystemResetWarning,0832.4,5.00,000.00,029.3,028.0,000.0,037.7,030.9,15.3,0000.0,0003.01,0006.78,0002.32
